XMM-NEWTON

Last updated on Mon Sep 21 2026 00:03:33 GMT+0000 (Coordinated Universal Time)

1 25989U 99066A 26265.08895873 .00000159 00000+0 00000+0 0 9995 2 25989 63.9811 281.7312 4648744 63.1536 0.1689 0.50124476 23499
UTC large
Height (km)
Speed (km/s)
/
Latitude / Longitude
Inclination (degrees)
Orbital Period (minutes)
Azimuth
Elevation
Range (km)
Doppler Factor

Next 0 passes for location: London (51.5072 / 0.1276)

No passes found over London.
XMM-NEWTON